Location: Bonningues
(50.7927°N, 2.0150°E)
Time: 19:40:37
(UTC+00:00)

Cosmos 1697 Rocket - Pass Details

Date: 08 August 2020
Orbit: 834 x 842 km, 71.0° (Epoch: 21 September)

Event Time Altitude Azimuth Distance (km) Brightness Sun altitude
Rises 20:49:35 0° 327° (NNW) 3,393 7.6 -11.8°
Reaches altitude 10° 20:52:04 10° 324° (NW) 2,455 6.6 -12.0°
Maximum altitude 20:57:32 56° 248° (WSW) 991 3.2 -12.7°
Enters shadow 21:02:35 12° 172° (S) 2,293 4.5 -13.2°
